Hourly Weather Hanoi

Today, 12 August, Wednesday

Time Temperature Precipitation Wind Pressure Humidity
00:00 +30°C° 0.1 mm 3 mps 752 mmHg 84%
01:00 +30°C° 0 mm 3 mps 751 mmHg 84%
02:00 +30°C° 1.4 mm 2 mps 751 mmHg 86%
03:00 +30°C° 1.4 mm 2 mps 751 mmHg 89%
04:00 +29°C° 1.4 mm 2 mps 751 mmHg 91%
05:00 +30°C° 0.7 mm 2 mps 751 mmHg 90%
06:00 +30°C° 0.7 mm 2 mps 752 mmHg 88%
07:00 +31°C° 0 mm 2 mps 752 mmHg 88%
08:00 +32°C° 0.7 mm 2 mps 752 mmHg 83%
09:00 +34°C° 0.7 mm 2 mps 752 mmHg 77%
10:00 +35°C° 0.7 mm 2 mps 752 mmHg 72%
11:00 +36°C° 0.5 mm 2 mps 752 mmHg 68%
12:00 +37°C° 0.5 mm 3 mps 751 mmHg 63%
13:00 +38°C° 0.5 mm 4 mps 751 mmHg 59%
14:00 +38°C° 0.3 mm 4 mps 750 mmHg 60%
15:00 +37°C° 0.3 mm 5 mps 750 mmHg 62%
16:00 +37°C° 0.3 mm 5 mps 749 mmHg 64%
17:00 +35°C° 0 mm 5 mps 750 mmHg 69%
18:00 +34°C° 0 mm 5 mps 751 mmHg 74%
19:00 +32°C° 0 mm 5 mps 751 mmHg 79%
20:00 +32°C° 0 mm 4 mps 752 mmHg 81%
21:00 +30°C° 0 mm 3 mps 753 mmHg 84%
22:00 +30°C° 0 mm 2 mps 754 mmHg 86%
23:00 +30°C° 0.2 mm 2 mps 753 mmHg 86%

Tomorrow, 13 August, Thursday

Time Temperature Precipitation Wind Pressure Humidity
00:00 +29°C° 0.2 mm 2 mps 753 mmHg 87%
01:00 +29°C° 0.2 mm 2 mps 753 mmHg 88%
02:00 +29°C° 0.2 mm 2 mps 753 mmHg 89%
03:00 +29°C° 0.2 mm 2 mps 752 mmHg 89%
04:00 +29°C° 0.2 mm 2 mps 752 mmHg 89%
05:00 +29°C° 0.7 mm 2 mps 752 mmHg 88%
06:00 +30°C° 0.7 mm 3 mps 752 mmHg 86%
07:00 +30°C° 0.7 mm 3 mps 752 mmHg 84%
08:00 +31°C° 1.7 mm 3 mps 752 mmHg 79%
09:00 +34°C° 1.7 mm 3 mps 753 mmHg 73%
10:00 +35°C° 1.7 mm 3 mps 753 mmHg 68%
11:00 +35°C° 0.8 mm 3 mps 752 mmHg 65%
12:00 +36°C° 0.8 mm 4 mps 752 mmHg 63%
13:00 +36°C° 0.8 mm 4 mps 751 mmHg 61%
14:00 +35°C° 1.7 mm 4 mps 751 mmHg 66%
15:00 +34°C° 1.7 mm 4 mps 750 mmHg 71%
16:00 +33°C° 1.7 mm 5 mps 750 mmHg 76%
17:00 +32°C° 2 mm 5 mps 750 mmHg 80%
18:00 +30°C° 2 mm 4 mps 751 mmHg 83%
19:00 +29°C° 2 mm 4 mps 751 mmHg 86%
20:00 +29°C° 0.3 mm 4 mps 752 mmHg 87%
21:00 +29°C° 0.3 mm 3 mps 752 mmHg 89%
22:00 +29°C° 0.3 mm 2 mps 753 mmHg 90%
23:00 +28°C° 0.8 mm 2 mps 753 mmHg 90%

Day after tomorrow, 14 August, Friday

Time Temperature Precipitation Wind Pressure Humidity
00:00 +28°C° 0.8 mm 2 mps 752 mmHg 90%
01:00 +28°C° 0.8 mm 2 mps 752 mmHg 90%
02:00 +28°C° 1.4 mm 2 mps 752 mmHg 91%
03:00 +28°C° 1.4 mm 3 mps 751 mmHg 91%
04:00 +28°C° 1.4 mm 3 mps 751 mmHg 91%
05:00 +28°C° 0 mm 3 mps 752 mmHg 91%
06:00 +28°C° 0 mm 2 mps 752 mmHg 91%
07:00 +28°C° 0 mm 1 mps 752 mmHg 91%
08:00 +29°C° 0.1 mm 1 mps 752 mmHg 88%
09:00 +29°C° 0.1 mm 1 mps 753 mmHg 84%
10:00 +30°C° 0.1 mm 1 mps 753 mmHg 81%
11:00 +31°C° 0.4 mm 1 mps 752 mmHg 78%
12:00 +32°C° 0.4 mm 1 mps 752 mmHg 75%
13:00 +32°C° 0.4 mm 2 mps 751 mmHg 73%
14:00 +32°C° 1.2 mm 2 mps 751 mmHg 74%
15:00 +33°C° 1.2 mm 3 mps 750 mmHg 75%
16:00 +33°C° 1.2 mm 4 mps 750 mmHg 76%
17:00 +32°C° 0.2 mm 4 mps 750 mmHg 79%
18:00 +30°C° 0.2 mm 3 mps 750 mmHg 82%
19:00 +29°C° 0.2 mm 3 mps 751 mmHg 85%
20:00 +29°C° 0 mm 3 mps 751 mmHg 86%
21:00 +29°C° 0 mm 3 mps 752 mmHg 87%
22:00 +28°C° 0 mm 2 mps 752 mmHg 88%
23:00 +28°C° 0 mm 2 mps 752 mmHg 88%

15 August, Saturday

Time Temperature Precipitation Wind Pressure Humidity
00:00 +28°C° 0 mm 2 mps 752 mmHg 89%
01:00 +28°C° 0 mm 2 mps 752 mmHg 89%
02:00 +27°C° 0 mm 2 mps 751 mmHg 90%
03:00 +27°C° 0 mm 2 mps 751 mmHg 90%
04:00 +27°C° 0 mm 1 mps 751 mmHg 90%
05:00 +27°C° 0 mm 1 mps 751 mmHg 89%
06:00 +28°C° 0 mm 1 mps 751 mmHg 87%
07:00 +28°C° 0 mm 1 mps 752 mmHg 86%
08:00 +29°C° 0 mm 2 mps 752 mmHg 81%
09:00 +31°C° 0 mm 2 mps 752 mmHg 75%
10:00 +33°C° 0 mm 3 mps 752 mmHg 70%
11:00 +33°C° 0.3 mm 4 mps 752 mmHg 70%
12:00 +33°C° 0.3 mm 5 mps 752 mmHg 71%
13:00 +33°C° 0.3 mm 5 mps 751 mmHg 72%
14:00 +32°C° 0.1 mm 5 mps 751 mmHg 73%
15:00 +32°C° 0.1 mm 5 mps 751 mmHg 74%
16:00 +30°C° 0.1 mm 5 mps 750 mmHg 76%
17:00 +30°C° 0 mm 4 mps 751 mmHg 78%
18:00 +29°C° 0 mm 4 mps 751 mmHg 80%
19:00 +28°C° 0 mm 4 mps 751 mmHg 82%
20:00 +28°C° 0.1 mm 3 mps 752 mmHg 83%
21:00 +28°C° 0.1 mm 3 mps 753 mmHg 83%
22:00 +28°C° 0.1 mm 3 mps 753 mmHg 84%
23:00 +28°C° 0.1 mm 3 mps 753 mmHg 84%

16 August, Sunday

Time Temperature Precipitation Wind Pressure Humidity
00:00 +28°C° 0.1 mm 3 mps 753 mmHg 85%
01:00 +28°C° 0.1 mm 2 mps 752 mmHg 86%
02:00 +27°C° 0.1 mm 2 mps 752 mmHg 85%
03:00 +27°C° 0.1 mm 2 mps 752 mmHg 85%
04:00 +27°C° 0.1 mm 2 mps 752 mmHg 85%
05:00 +27°C° 0 mm 2 mps 752 mmHg 85%
06:00 +28°C° 0 mm 2 mps 752 mmHg 84%
07:00 +28°C° 0 mm 1 mps 753 mmHg 84%
08:00 +29°C° 0.1 mm 2 mps 753 mmHg 79%
09:00 +30°C° 0.1 mm 2 mps 753 mmHg 74%
10:00 +31°C° 0.1 mm 3 mps 753 mmHg 70%
11:00 +31°C° 0.8 mm 3 mps 753 mmHg 70%
12:00 +33°C° 0.8 mm 3 mps 753 mmHg 69%
13:00 +33°C° 0.8 mm 4 mps 752 mmHg 69%
14:00 +31°C° 1.2 mm 3 mps 752 mmHg 73%
15:00 +30°C° 1.2 mm 3 mps 751 mmHg 77%
16:00 +29°C° 1.2 mm 3 mps 751 mmHg 81%
17:00 +28°C° 0.2 mm 3 mps 751 mmHg 83%
18:00 +28°C° 0.2 mm 2 mps 752 mmHg 84%
19:00 +27°C° 0.2 mm 2 mps 752 mmHg 86%
20:00 +27°C° 0.3 mm 2 mps 753 mmHg 87%
21:00 +27°C° 0.3 mm 1 mps 753 mmHg 88%
22:00 +27°C° 0.3 mm 1 mps 754 mmHg 88%
23:00 +27°C° 0.7 mm 1 mps 754 mmHg 89%

17 August, Monday

Time Temperature Precipitation Wind Pressure Humidity
00:00 +27°C° 0.7 mm 1 mps 753 mmHg 90%
01:00 +25°C° 0.7 mm 0 mps 753 mmHg 91%
02:00 +25°C° 0.2 mm 0 mps 753 mmHg 91%
03:00 +24°C° 0.2 mm 0 mps 752 mmHg 91%
04:00 +24°C° 0.2 mm 0 mps 752 mmHg 91%
05:00 +25°C° 0.1 mm 0 mps 752 mmHg 90%
06:00 +25°C° 0.1 mm 0 mps 753 mmHg 89%
07:00 +25°C° 0.1 mm 0 mps 753 mmHg 88%
08:00 +26°C° 0.1 mm 0 mps 753 mmHg 84%
09:00 +29°C° 0.1 mm 1 mps 753 mmHg 79%
10:00 +31°C° 0.1 mm 1 mps 753 mmHg 75%
11:00 +31°C° 0.4 mm 1 mps 753 mmHg 74%
12:00 +31°C° 0.4 mm 1 mps 752 mmHg 73%
13:00 +31°C° 0.4 mm 1 mps 752 mmHg 72%
14:00 +32°C° 1.2 mm 2 mps 752 mmHg 72%
15:00 +32°C° 1.2 mm 2 mps 751 mmHg 72%
16:00 +32°C° 1.2 mm 2 mps 751 mmHg 71%
17:00 +31°C° 2.2 mm 3 mps 751 mmHg 77%
18:00 +29°C° 2.2 mm 3 mps 752 mmHg 83%
19:00 +28°C° 2.2 mm 4 mps 752 mmHg 88%
20:00 +28°C° 1.1 mm 4 mps 753 mmHg 89%
21:00 +28°C° 1.1 mm 3 mps 753 mmHg 90%
22:00 +27°C° 1.1 mm 3 mps 754 mmHg 91%
23:00 +27°C° 1.4 mm 3 mps 753 mmHg 92%
Show more